Regional Weather Roundup
Issued by NWS

Home | Current Version | Previous Version | Graphics & Text | Print | Product List | Glossary On
Versions: 1 2 3 4 5 6 7 8 9 10 11 12 13 14 15 16 17 18 19 20 21 22 23 24 25 26 27 28 29 30 31 32 33 34 35 36 37 38 39 40 41 42 43 44 45 46 47 48 49 50
306
ASUS43 KIND 301109
RWRIN

WEATHER ROUNDUP FOR INDIANA
NATIONAL WEATHER SERVICE INDIANAPOLIS IN
700 AM EDT SAT APR 30 2016

NOTE: "FAIR" INDICATES FEW OR NO CLOUDS BELOW 12,000 FEET WITH NO
SIGNIFICANT WEATHER AND/OR OBSTRUCTIONS TO VISIBILITY.

* - STATION DOES NOT REPORT WEATHER SUCH AS PRECIPITATION OR FOG.

+ - STATION NOT QUALITY CONTROLLED BY THE NATIONAL WEATHER SERVICE.
    USE DATA WITH CAUTION...ESPECIALLY DEWPOINT AND RELATIVE
    HUMIDITY OBSERVATIONS.

INZ001>003-010>013-019-020-301200-
NORTHWEST INDIANA

CITY           SKY/WX    TMP DP  RH WIND       PRES   REMARKS
GARY /AIRPORT/ MOCLDY    48  48 100 E8        30.06S
KNOX *+        CLOUDY    45  36  70 E10       30.06S
LA PORTE +     CLOUDY    46  44  93 E8        30.08R FOG
MICHIGAN CITY+ CLOUDY    45  43  93 E5        30.07S
MONTICELLO +   CLOUDY    48  43  81 E9        30.04R
RENSSELAER +   CLOUDY    46  45  93 E12       30.04S FOG
VALPARAISO     CLOUDY    45  42  89 E12       30.06R FOG

$$

LMZ046-743>745-301200-
SOUTHERN LAKE MICHIGAN

STATION/POSITION TIME  TEMP    WIND        PRES    WAVE
                       AIR SEA DIR/SP/G            HT
                 (UTC) (F)     (DEG/KT/KT) (MB)    (FT)
BURNS HARBOR     1002   47      70/  8/ 12 1018.3F
MICHIGAN CITY    1000   46      60/  9/ 10   N/A

$$

INZ004-005-014>016-021>024-301200-
NORTH CENTRAL INDIANA

CITY           SKY/WX    TMP DP  RH WIND       PRES   REMARKS
GOSHEN         CLOUDY    43  36  76 E9        30.08S
LOGANSPORT +   CLOUDY    46  43  87 E8        30.07S FOG
PERU/GRISSOM   CLOUDY    47  45  90 E7        30.05R
ROCHESTER +    CLOUDY    46  43  87 E13       30.07S
SOUTH BEND     CLOUDY    45  36  70 E13       30.08R
WARSAW +       MOCLDY    43  37  81 E9        30.09R

$$

INZ006>009-017-018-025>027-301200-
NORTHEAST INDIANA

CITY           SKY/WX    TMP DP  RH WIND       PRES   REMARKS
ANGOLA *+      CLEAR     43  28  56 E12       30.09F
AUBURN +       PTCLDY    41  36  81 E8        30.10S
FORT WAYNE     CLOUDY    42  38  85 E9        30.10R
HUNTINGTON +   CLOUDY   N/A N/A N/A E7        30.09R

$$

INZ028-029-035-036-043>045-051>053-301200-
WEST CENTRAL INDIANA

CITY           SKY/WX    TMP DP  RH WIND       PRES   REMARKS
CRAWFORDSVL +  CLOUDY    50  49  99 E9        29.99S
GREENCASTLE +  CLOUDY    52  52 100 E9        29.99S FOG
LAFAYETTE      CLOUDY    50  45  83 E10       30.02S
TERRE HAUTE    LGT RAIN  53  51  93 E9        29.96F FOG

$$

INZ030>032-037>040-046>048-054>057-064-065-301200-
CENTRAL INDIANA

CITY           SKY/WX    TMP DP  RH WIND       PRES   REMARKS
CP ATTERBURY + RAIN      52  48  87 E6        30.01S
COLUMBUS       LGT RAIN  52  52 100 NE7       30.00  FOG
FISHERS *+     CLOUDY    50  46  87 E6        30.02
FRANKFORT +      N/A     50  39  66 SE13      30.03S
GREENWOOD *+   CLOUDY    52  48  87 E10       30.01S
INDIANAPOLIS   CLOUDY    52  47  83 E10       29.99S
-EAGLE CREEK   CLOUDY    52  46  80 E10       30.00F
KOKOMO *+      MOCLDY    46  41  81 E9        30.06S
MARION +       CLOUDY    46  42  85 E7        30.07S
SHELBYVILLE    CLOUDY    54  46  74 E12       30.00S
ZIONSVILLE +   CLOUDY    50  44  81 E12       30.03S

$$

INZ033-034-041-042-049-050-058-059-301200-
EAST CENTRAL INDIANA

CITY           SKY/WX    TMP DP  RH WIND       PRES   REMARKS
MUNCIE         CLOUDY    49  43  80 E7        30.05S

$$

INZ060-061-067>069-081>083-085>088-301200-
SOUTHWEST INDIANA

CITY           SKY/WX    TMP DP  RH WIND       PRES   REMARKS
EVANSVILLE     LGT RAIN  60  53  77 NE5       29.89F
HUNTINGBURG *+ CLOUDY    61  52  72 E10       29.90F
WASHINGTON +   CLOUDY    58  55  91 E9        29.91F

$$

INZ062-063-066-070>080-084-089>092-301200-
SOUTH CENTRAL AND SOUTHEAST INDIANA

CITY           SKY/WX    TMP DP  RH WIND       PRES   REMARKS
BEDFORD +      CLOUDY    55  55 100 E10G16    29.93F
BLOOMINGTON    CLOUDY    54  51  90 E8        29.95F
MADISON *+     CLOUDY    54  50  87 E7        30.01R
NORTH VERNON + LGT RAIN  55  55 100 E9        29.99F
SEYMOUR +      LGT RAIN  57  52  82 CALM      29.98F

$$





USA.gov is the U.S. government's official web portal to all federal, state and local government web resources and services.